Volver al catálogo

STARLINK-34650

ActivoComunicacionesVLEO
NORAD 66258·PAYLOAD·🇺🇸 United States

Lanzado Oct 29, 2025 desde Cape Canaveral Space Force Station

Loading…

Próximos Pases (próximas 24 horas)

TLE

ActualizadoSource: CelesTrak SupGP

Época: Sep 14, 2026, 15:55 UTC

1 66258C 25245AA  26257.66368056  .00014904  00000+0  44016-3 0  2579
2 66258  53.1587 124.7627 0001306  92.1789  83.1678 15.34396197    15

Sigue STARLINK-34650 en tiempo real con AllMySat

Download on the App Store